Find Starlink 32502

NORAD ID: 62116 Int'l Des: 2024-222 Owner: SPXS Country: US Constellation: starlink operational
LEOCIRCULAR

Live Position

Loading 3D Globe...

About Starlink 32502

Description loading...

Upcoming Passes

Passes for default location (London). Set your location on the main map for personalized predictions.

Altitude History

Loading altitude history...

Two-Line Element Set

1 62116U 24222C 26126.53015368 .00015613 00000-0 57555-3 0 9992
2 62116 42.9996 169.6399 0001691 268.4863 91.5795 15.27587743 81659
Epoch: May 6, 2026 • Age: 11 hours

Current Status

Altitude 485.3 km
Velocity 7.63 km/s
Sub-Earth Point 34.61°N, 9.75°W
Launch Date Nov 27, 2024
Age 1.4 years
Type internet

Technical Details

Classification Payload
Mass 730.00 kg
Dry Mass 700.00 kg
Total Mass 730.00 kg
Length 0.30 m
Diameter 4.10 m
Span 29.00 m
Shape Box + pan
Manufacturer SPXS
Bus Type Starlink V2M
Phase Status In Orbit
Owner/State SPXS/US

Most Searched